Home   Weather   Columbus   Past weeks
Flag for USA

Past Weather in Columbus, Missouri, USA — Yesterday and Last 2 Weeks

Now
86 °F

Sunny.


Feels Like: 94 °F
Forecast: 95 / 74 °F
Wind: 8 mph from South

Location: Kansas City Downtown Airport

Current Time: Jul 17, 2019 at 9:47:18 am

Latest Report: Jul 17, 2019 at 8:54 am


Visibility: 10 mi

Pressure: 29.88 "Hg

Humidity: 67%

Dew Point: 74 °F

Location of ColumbusLocation

Past Weather in Columbus — Graph

°F

Columbus Temperature Yesterday

Maximum temperature yesterday: 92 °F (at 4:54 pm)
Minimum temperature yesterday: 72 °F (at 4:37 am)
Average temperature yesterday: 80 °F

High & Low Weather Summary for the Past Weeks

 TemperatureHumidityPressure
High94 °F (Jul 9, 3:54 pm)94% (Jul 5, 3:20 am)30.20 "Hg (Jul 5, 3:20 am)
Low69 °F (Jul 12, 5:54 am)42% (Jul 3, 2:54 pm)29.80 "Hg (Jul 3, 5:54 pm)
Average81 °F67%29.95 "Hg
* Reported Jul 2 7:54 am — Jul 17 7:54 am, Columbus. Weather by CustomWeather, © 2019

Note: Actual official high and low records may vary slightly from our data, if they occured in-between our weather recording intervals... More about our weather records

Advertising

Columbus Weather History for the Previous 24 Hours

Scroll right to see more
 ConditionsComfort  
Time TempWeatherWind HumidityBarometerVisibility
7:54 am
Wed, Jul 17
83 °FSunny.6 mph70%29.88 "Hg10 mi
6:54 am80 °FSunny.6 mph74%29.85 "Hg10 mi
5:54 am80 °FClear.6 mph71%29.85 "Hg10 mi
4:54 am79 °FPassing clouds.3 mph74%29.86 "Hg10 mi
3:54 am79 °FClear.7 mph74%29.87 "Hg10 mi
2:54 am81 °FClear.9 mph69%29.87 "Hg10 mi
1:54 am81 °FClear.10 mph72%29.87 "Hg10 mi
12:54 am82 °FClear.8 mph67%29.88 "Hg10 mi
11:54 pm
Tue, Jul 16
83 °FClear.7 mph68%29.88 "Hg10 mi
10:54 pm85 °FClear.8 mph63%29.88 "Hg10 mi
9:54 pm86 °FClear.7 mph59%29.86 "Hg10 mi
8:54 pm85 °FClear.5 mph59%29.84 "Hg10 mi
7:54 pm88 °FSunny.8 mph54%29.84 "Hg10 mi
6:54 pm90 °FPassing clouds.7 mph54%29.85 "Hg10 mi
5:54 pm91 °FSunny.8 mph49%29.84 "Hg10 mi
4:54 pm92 °FSunny.5 mph47%29.83 "Hg10 mi
3:54 pm90 °FSunny.8 mph50%29.83 "Hg10 mi
2:54 pm89 °FSunny.No wind52%29.84 "Hg10 mi
1:54 pm87 °FSunny.3 mph55%29.86 "Hg10 mi
12:54 pm85 °FPassing clouds.3 mph61%29.88 "Hg10 mi
11:54 am82 °FScattered clouds.No wind65%29.89 "Hg10 mi
11:13 am82 °FScattered clouds.5 mph67%29.94 "Hg10 mi
10:54 am82 °FPartly sunny.6 mph67%29.92 "Hg10 mi
10:26 am80 °FPartly sunny.10 mph69%29.96 "Hg10 mi
9:54 am78 °FSunny.6 mph74%29.93 "Hg10 mi
Weather by CustomWeather, © 2019

See weather overview